Location: Newark
(52.2090°N, 4.1550°W)
Time: 00:47:23
(UTC+00:00)

Explorer 7 - Pass Details

Date: 16 September 2019
Orbit: 485 x 680 km, 50.3° (Epoch: 13 October)

Event Time Altitude Azimuth Distance (km) Brightness Sun altitude
Exits shadow 04:49:49 12° 273° (W) 1,998 9.1 -10.1°
Maximum altitude 04:54:19 57° 197° (SSW) 802 7.4 -9.5°
Drops below altitude 10° 04:59:08 10° 119° (ESE) 2,112 10.5 -8.8°
Sets 05:01:30 0° 116° (ESE) 3,015 11.4 -8.4°
